Pendleton, OR

8:47 PM PDT on October 21, 2017 (GMT -0700)
Eastern Oreg Regional At Pendleton

Weather History for KPDT - May, 2014

Change the Weather History Date:

Wednesday, May 28, 2014

  Actual Average Record
Temperature  
Mean Temperature 59 °F 61 °F  
Max Temperature 69 °F 73 °F 100 °F (1934)
Min Temperature 49 °F 49 °F 31 °F (1918)
Degree Days  
Heating Degree Days 6 5  
Month to date heating degree days 156 231  
Since 1 July heating degree days 5434 5178  
Cooling Degree Days 0 1  
Month to date cooling degree days 18 19  
Year to date cooling degree days 18 20  
Growing Degree Days 10 (Base 50)    
Moisture  
Dew Point 34 °F    
Average Humidity 38    
Maximum Humidity 54    
Minimum Humidity 21    
Precipitation  
Precipitation T in 0.04 in 1.05 in (1988)
Month to date precipitation 0.83 1.20  
Year to date precipitation 6.47 6.26  
Snow  
Snow 0.00 in 0.00 in 0.00 in (2002)
Month to date snowfall 0.0 0.0  
Year to date snowfall 15.2 7.7  
Since 1 July snowfall 21.7 15.2  
Snow Depth 0.00 in    
Sea Level Pressure  
Sea Level Pressure 30.03 in    
Wind  
Wind Speed 19 mph (WSW)    
Max Wind Speed 31 mph    
Max Gust Speed 41 mph    
Visibility 10 miles    
Events      
T = Trace of Precipitation, MM = Missing Value Source: NWS Daily Summary

Daily Weather History Graph

Daily Weather History Graph

Search for Another Location

Airport or City:

Trip Planner

Search our weather history database for the weather conditions in past years. The results will help you decide how hot, cold, wet, or windy it might be!

Date:

Astronomy

May. 28, 2014 Rise Set
Actual Time 5:11 AM PDT 8:34 PM PDT
Civil Twilight 4:35 AM PDT 9:10 PM PDT
Nautical Twilight 3:47 AM PDT 9:58 PM PDT
Astronomical Twilight 2:46 AM PDT 11:00 PM PDT
Moon 5:25 AM PDT (5/28) 8:33 PM PDT (5/28)
Length of Visible Light 16h 35m
Length of Day
15h 22m
New Moon, 0% of the Moon is Illuminated
May 28
New Moon
Jun 5
First Quarter
Jun 12
Full
Jun 19
Last Quarter
Jun 27
New

Hourly Weather History & Observations

Time (PDT) Temp. Dew Point Humidity Pressure Visibility Wind Dir Wind Speed Gust Speed Precip Events Conditions
12:53 AM 53.1 °F 36.0 °F 52% 29.98 in 10.0 mi WSW 13.8 mph - N/A   Clear
1:53 AM 53.1 °F 36.0 °F 52% 29.99 in 10.0 mi WSW 16.1 mph - N/A   Clear
2:53 AM 53.1 °F 36.0 °F 52% 29.99 in 10.0 mi West 13.8 mph - N/A   Clear
3:53 AM 52.0 °F 36.0 °F 54% 30.00 in 10.0 mi WSW 10.4 mph - N/A   Partly Cloudy
4:53 AM 51.1 °F 36.0 °F 56% 30.02 in 10.0 mi WSW 8.1 mph - N/A   Clear
6:53 AM 52.0 °F 36.0 °F 54% 30.02 in 10.0 mi WSW 12.7 mph - N/A   Partly Cloudy
7:53 AM 54.0 °F 36.0 °F 51% 30.03 in 10.0 mi WSW 17.3 mph - N/A   Mostly Cloudy
8:53 AM 55.9 °F 36.0 °F 47% 30.02 in 10.0 mi West 18.4 mph 24.2 mph N/A   Partly Cloudy
9:53 AM 59.0 °F 35.1 °F 41% 30.02 in 10.0 mi WSW 20.7 mph 26.5 mph N/A   Partly Cloudy
11:53 AM 61.0 °F 30.9 °F 32% 30.00 in 10.0 mi West 19.6 mph 29.9 mph N/A   Overcast
12:53 PM 66.0 °F 30.0 °F 26% 29.99 in 10.0 mi West 17.3 mph 28.8 mph N/A   Partly Cloudy
1:53 PM 63.0 °F 30.9 °F 30% 29.99 in 10.0 mi West 21.9 mph 28.8 mph N/A   Mostly Cloudy
3:53 PM 68.0 °F 26.6 °F 21% 30.02 in 10.0 mi West 23.0 mph 38.0 mph N/A   Scattered Clouds
4:53 PM 66.0 °F 27.0 °F 23% 30.01 in 10.0 mi West 29.9 mph 33.4 mph N/A   Partly Cloudy
5:53 PM 66.0 °F 28.9 °F 25% 30.02 in 10.0 mi West 25.3 mph 36.8 mph N/A   Clear
6:53 PM 62.1 °F 30.9 °F 31% 30.04 in 10.0 mi West 23.0 mph 32.2 mph N/A   Clear
7:53 PM 57.0 °F 35.1 °F 44% 30.07 in 10.0 mi WSW 20.7 mph 28.8 mph N/A   Clear
8:53 PM 54.0 °F 36.0 °F 51% 30.08 in 10.0 mi West 25.3 mph 32.2 mph N/A   Clear
9:53 PM 52.0 °F 36.0 °F 54% 30.10 in 10.0 mi West 19.6 mph 27.6 mph N/A   Clear
10:53 PM 51.8 °F 35.6 °F 54% 30.13 in 10.0 mi WSW 21.9 mph 29.9 mph N/A   Clear
11:53 PM 51.1 °F 36.0 °F 56% 30.13 in 10.0 mi WSW 15.0 mph 21.9 mph N/A   Clear